Date,TemperatureHighF,TemperatureAvgF,TemperatureLowF,DewpointHighF,DewpointAvgF,DewpointLowF,HumidityHigh,HumidityAvg,HumidityLow,PressureMaxIn,PressureMinIn,WindSpeedMaxMPH,WindSpeedAvgMPH,GustSpeedMaxMPH,PrecipitationSumIn
2013-1-1,58.5,53.3,47.9,48.6,44.1,40.9,83,71,55,30.08,29.97,7,3,9,0.00
2013-1-2,55.6,49.6,45.3,45.6,42.4,39.1,85,76,64,30.29,30.06,5,2,10,0.09
2013-1-3,56.8,51.2,45.4,47.3,43.3,34.4,83,75,58,30.61,30.29,10,4,13,0.11
2013-1-4,60.4,52.2,41.5,42.1,36.2,31.5,86,57,37,30.60,30.45,8,4,12,0.00
2013-1-5,69.1,60.7,53.6,42.7,35.2,29.9,52,39,28,30.44,30.23,8,4,13,0.00
2013-1-6,68.6,57.1,47.8,45.8,38.5,32.0,69,51,31,30.31,30.22,4,2,5,0.00
2013-1-7,70.9,57.9,47.8,51.0,39.5,30.7,68,51,34,30.23,30.14,4,1,4,0.00
2013-1-8,66.7,53.8,46.4,53.2,45.3,39.9,84,74,54,30.28,30.21,3,1,5,0.00
2013-1-9,59.0,49.4,41.1,48.8,42.3,36.4,86,77,63,30.24,30.08,7,3,10,0.01
2013-1-10,62.3,56.3,48.7,46.0,42.8,38.4,68,61,54,30.09,30.01,11,5,18,0.00
2013-1-11,63.1,54.9,44.4,47.0,42.6,35.1,84,64,45,30.12,30.04,6,2,9,0.00
2013-1-12,62.7,51.3,43.2,48.9,40.4,30.6,84,67,44,30.10,29.91,6,3,10,0.00
2013-1-13,54.9,51.2,47.3,47.9,40.9,36.7,82,68,59,29.90,29.74,10,6,19,0.25
2013-1-14,54.6,48.7,42.5,42.4,38.7,36.1,85,69,52,29.97,29.86,8,3,14,0.09
2013-1-15,55.5,49.7,43.4,42.7,39.6,37.0,82,68,52,29.93,29.76,12,5,17,0.03
2013-1-16,59.0,53.7,49.5,44.4,41.8,38.2,76,64,52,29.88,29.56,11,7,17,0.00
2013-1-17,58.6,50.4,45.8,46.0,40.8,36.5,82,70,56,29.78,29.57,10,4,17,0.00
2013-1-18,61.8,55.5,49.7,52.1,45.8,38.3,82,70,59,29.74,29.47,12,4,14,0.01
2013-1-19,64.0,57.0,50.7,53.7,49.9,44.9,91,78,51,29.47,29.05,14,7,25,0.21
2013-1-20,53.8,50.2,47.8,48.5,42.2,36.8,84,74,59,29.57,29.06,9,4,14,0.06
2013-1-21,55.7,51.6,49.5,45.6,40.3,32.7,78,65,51,29.82,29.50,10,5,22,0.02
2013-1-22,54.2,49.0,42.0,44.8,36.5,31.9,82,63,50,29.83,29.48,15,6,18,0.13
2013-1-23,49.5,46.9,42.3,39.3,34.9,31.2,83,63,51,29.79,29.47,12,7,33,0.01
2013-1-24,49.5,47.3,43.1,45.4,39.2,29.8,86,74,47,29.78,29.53,12,6,26,0.92
2013-1-25,55.7,46.7,39.2,41.3,35.8,29.9,87,67,40,29.89,29.75,6,3,15,0.02
2013-1-26,56.2,48.4,42.2,45.6,39.3,27.8,86,71,53,30.08,29.71,9,3,24,0.14
2013-1-27,60.1,52.6,43.2,50.7,45.7,39.3,89,78,59,30.08,29.81,7,4,17,0.00
2013-1-28,56.8,52.4,46.4,49.1,43.3,36.8,86,72,55,30.28,29.79,13,4,25,0.32
2013-1-29,60.2,50.3,42.9,50.0,42.2,36.5,84,74,56,30.35,30.27,6,2,9,0.00
2013-1-30,65.6,51.9,42.9,50.3,42.7,35.5,86,72,51,30.32,30.23,6,2,10,0.00
2013-1-31,69.2,59.2,49.0,50.7,46.6,43.3,83,64,49,30.41,30.29,5,2,8,0.00
2013-2-1,64.1,54.3,46.0,55.0,47.0,42.6,92,78,48,30.29,29.73,12,3,17,0.01
2013-2-2,61.5,52.7,46.7,47.6,40.9,37.1,79,64,50,29.81,29.56,14,8,19,0.46
2013-2-3,49.4,45.9,40.5,37.2,29.9,24.8,70,54,39,30.29,29.79,14,4,23,0.01
2013-2-4,63.1,48.9,38.3,40.5,36.1,31.1,83,63,31,30.34,30.24,6,2,11,0.00
2013-2-5,62.5,52.3,43.8,48.2,42.1,36.6,83,69,53,30.25,29.91,9,3,13,0.00
2013-2-6,54.9,50.6,47.0,44.1,37.3,33.9,69,60,51,29.90,29.73,15,8,33,0.03
2013-2-7,48.0,46.9,46.3,37.2,36.1,34.5,67,66,63,29.85,29.75,10,5,18,0.00
2013-2-8,54.1,45.9,41.0,40.1,35.8,31.8,79,68,56,29.98,29.83,9,2,10,0.03
2013-2-9,48.0,43.6,38.9,37.3,32.0,27.0,78,64,46,30.12,29.94,6,3,11,0.00
2013-2-10,61.3,51.9,44.7,46.7,39.5,33.5,82,64,38,30.09,29.67,11,6,22,0.00
2013-2-11,55.9,49.6,45.6,46.9,36.0,30.5,83,60,50,29.69,29.56,12,6,19,0.13
2013-2-12,52.6,48.8,44.3,39.5,35.0,28.4,75,59,43,29.92,29.59,11,6,20,0.17
2013-2-13,57.1,43.2,45.0,43.6,18.8,-99.9,75,55,41,30.09,29.88,6,-142,9,0.00
2013-2-14,63.0,21.3,51.3,48.1,-46.3,-99.9,74,23,55,30.15,30.08,4,-629,6,0.00
2013-2-15,62.2,21.1,52.4,50.1,-47.3,-99.9,88,22,49,30.14,30.04,7,-633,14,0.00
2013-2-16,61.2,19.5,53.4,46.7,-51.1,-99.9,78,21,53,30.14,30.05,6,-659,7,0.00
2013-2-17,54.9,14.3,53.1,47.9,-61.0,-99.9,82,20,73,30.05,29.89,3,-733,4,0.00
2013-2-18,58.0,10.5,51.3,54.2,-71.4,-99.9,91,16,74,29.93,29.83,3,-810,5,0.01
2013-2-19,58.5,22.1,50.0,49.8,-41.6,-99.9,90,29,60,29.95,29.88,4,-600,9,0.00
2013-2-20,62.3,22.9,46.5,41.7,-44.2,-99.9,69,20,41,29.91,29.82,4,-594,6,0.00
2013-2-21,63.5,14.7,57.7,50.8,-64.8,-99.9,71,14,54,29.86,29.63,6,-759,10,0.00
2013-2-22,59.0,20.6,52.9,48.7,-46.2,-99.9,83,26,59,29.63,29.46,8,-629,12,0.17
2013-2-23,43.2,12.7,39.9,36.7,-59.0,-99.9,84,23,72,29.82,29.30,5,-696,9,0.00
2013-2-24,49.2,18.9,40.6,33.9,-45.7,-99.9,65,24,50,29.92,29.82,7,-584,11,0.00
2013-2-25,45.1,12.0,39.1,38.3,-61.4,-99.9,89,22,59,30.06,29.92,4,-715,5,0.00
2013-2-26,51.1,20.9,38.2,37.5,-39.2,-99.9,85,29,57,30.14,30.03,5,-549,13,0.00
2013-2-27,54.6,20.0,45.1,39.1,-46.6,-99.9,76,22,50,30.15,30.03,6,-608,8,0.00
2013-2-28,50.2,1.6,49.2,47.4,-95.2,-99.9,91,3,90,30.03,29.76,5,-967,5,0.00
2013-3-1,55.3,15.2,46.7,48.2,-56.5,-99.9,93,25,69,29.81,29.62,4,-701,7,0.00
2013-3-2,62.8,26.3,49.5,43.6,-34.6,-99.9,64,26,46,30.06,29.79,8,-534,13,0.00
2013-3-3,63.2,18.3,56.9,46.7,-56.9,-99.9,68,16,39,30.06,29.92,4,-697,5,0.00
2013-3-4,63.1,18.8,53.8,52.4,-52.1,-99.9,82,24,68,29.93,29.67,5,-682,10,0.00
2013-3-5,65.5,21.0,56.3,53.0,-49.3,-99.9,81,23,62,29.66,29.27,4,-665,7,0.00
2013-3-6,65.3,39.9,53.2,52.3,2.4,-99.9,90,51,57,29.53,29.22,10,-316,14,0.00
2013-3-7,72.2,61.9,54.6,55.2,51.4,47.2,90,70,47,29.70,29.52,10,6,21,0.00
2013-3-8,67.5,62.5,54.9,55.2,47.6,43.5,89,59,43,29.74,29.56,12,7,19,0.00
2013-3-9,68.3,60.0,52.6,52.0,47.1,41.2,90,64,40,29.72,29.65,13,5,16,0.00
2013-3-10,62.8,58.2,52.8,51.0,44.5,40.1,90,62,47,29.67,29.57,11,6,22,0.00
2013-3-11,60.8,57.0,52.1,43.9,41.8,39.6,70,57,47,29.66,29.57,11,7,18,0.00
2013-3-12,62.6,55.8,50.4,44.4,40.3,35.2,77,57,41,29.60,29.49,11,5,18,0.00
2013-3-13,57.9,47.1,39.6,49.3,41.6,35.4,87,82,62,29.58,29.30,13,3,13,1.83
2013-3-14,50.9,46.3,41.4,37.6,34.2,29.8,86,63,49,29.77,29.58,13,6,18,0.03
2013-3-15,56.3,48.3,40.0,35.9,32.6,27.5,68,55,37,30.06,29.77,9,4,12,0.00
2013-3-16,58.7,47.7,37.7,43.9,37.2,24.4,85,68,46,30.06,29.84,5,2,5,0.00
2013-3-17,65.1,54.6,45.0,52.3,45.3,37.4,86,72,52,29.84,29.45,12,4,14,0.22
2013-3-18,61.3,56.6,48.4,52.3,41.3,28.0,85,59,33,29.75,29.40,10,5,15,0.07
2013-3-19,66.0,54.3,44.5,52.0,45.8,39.3,88,74,47,29.74,29.54,5,2,9,0.00
2013-3-20,59.0,52.7,46.7,49.8,45.7,41.8,86,77,56,30.07,29.50,6,3,10,0.01
2013-3-21,64.1,54.0,46.3,52.5,47.1,41.4,85,78,66,30.09,29.93,6,3,9,0.00
2013-3-22,69.5,56.4,45.9,50.4,44.9,36.5,82,67,46,29.93,29.69,6,2,8,0.00
2013-3-23,65.9,57.1,52.1,51.1,48.8,46.4,88,75,55,29.70,29.55,7,3,11,0.00
2013-3-24,65.2,57.1,50.7,50.8,45.9,42.5,84,67,46,29.59,29.47,6,2,11,0.00
2013-3-25,65.1,58.5,50.4,46.9,43.1,39.2,79,57,42,29.73,29.57,12,6,19,0.00
2013-3-26,69.4,62.4,56.5,53.9,49.2,45.9,89,63,44,29.64,29.51,12,5,19,0.17
2013-3-27,66.8,59.8,54.6,53.3,51.0,48.3,90,74,54,29.66,29.51,7,3,13,0.00
2013-3-28,71.3,60.6,53.5,58.5,52.6,47.8,91,76,51,29.82,29.60,7,3,12,0.00
2013-3-29,70.6,60.0,50.9,53.2,49.8,46.8,87,71,48,29.81,29.66,9,4,16,0.00
2013-3-30,66.6,64.5,61.8,51.9,44.5,38.4,68,49,38,29.76,29.57,14,9,24,0.00
2013-3-31,69.7,62.1,55.0,50.6,42.4,36.1,82,50,32,29.75,29.61,11,5,18,0.00
2013-4-1,66.4,59.5,54.2,54.8,49.2,40.4,92,71,46,29.60,29.37,10,5,19,0.34
2013-4-2,63.5,55.7,47.2,49.5,43.0,39.4,87,65,44,29.76,29.60,9,4,14,0.00
2013-4-3,70.6,60.8,49.6,47.7,43.0,39.1,72,53,36,29.77,29.56,6,3,10,0.00
2013-4-4,66.1,58.5,52.4,53.0,45.7,41.0,84,63,45,29.58,29.43,7,3,8,0.00
2013-4-5,65.9,55.8,49.1,51.1,46.7,42.5,84,72,49,29.68,29.54,6,2,10,0.31
2013-4-6,52.6,47.9,44.7,43.6,38.6,34.7,82,71,56,29.92,29.67,9,4,16,0.13
2013-4-7,65.9,53.4,45.6,43.6,39.6,34.2,76,61,37,30.00,29.91,7,3,10,0.00
2013-4-8,65.4,56.1,48.3,50.1,45.5,43.1,87,69,49,29.91,29.79,9,4,13,0.00
2013-4-9,70.2,59.3,48.8,50.4,44.2,37.5,86,61,31,29.91,29.81,10,4,15,0.00
2013-4-10,75.7,62.2,50.0,54.5,48.7,43.7,86,64,36,30.01,29.90,7,3,13,0.00
2013-4-11,71.3,62.8,54.9,58.4,53.1,47.9,85,71,46,30.00,29.81,9,5,19,0.00
2013-4-12,75.7,67.3,55.7,51.0,47.3,42.3,75,49,38,30.04,29.83,10,3,14,0.00
2013-4-13,78.1,63.2,53.1,50.5,45.3,37.9,78,54,24,30.22,30.04,5,2,8,0.00
2013-4-14,76.2,64.6,54.1,47.9,40.5,32.8,62,42,31,30.24,30.18,6,2,11,0.00
2013-4-15,79.8,67.5,56.8,50.2,43.8,37.1,63,43,29,30.21,30.10,5,2,8,0.00
2013-4-16,80.5,65.7,54.2,55.8,46.8,35.0,77,52,27,30.16,30.09,7,2,9,0.00
2013-4-17,79.7,66.6,56.0,54.5,48.7,44.5,75,55,35,30.17,30.11,5,2,7,0.00
2013-4-18,83.0,67.2,55.6,52.0,46.3,42.4,69,49,30,30.14,30.06,5,2,10,0.00
2013-4-19,71.2,61.1,54.6,53.8,48.3,45.3,79,63,50,30.16,30.04,8,3,13,0.00
2013-4-20,63.4,56.9,51.2,46.2,42.4,37.7,74,59,45,30.17,30.07,8,3,13,0.00
2013-4-21,69.1,57.6,51.0,50.4,46.9,35.9,85,69,31,30.11,30.00,6,3,10,0.00
2013-4-22,64.3,54.6,49.9,51.7,46.0,40.2,86,74,43,30.08,29.99,5,1,7,0.00
2013-4-23,67.2,57.3,46.7,47.7,42.8,38.3,79,61,38,30.17,30.07,7,3,15,0.00
2013-4-24,66.1,58.5,53.2,51.7,49.2,45.5,83,71,54,30.17,30.05,8,5,12,0.04
2013-4-25,59.6,58.4,57.3,56.3,53.9,50.8,93,85,74,30.04,29.89,10,6,14,0.68
2013-4-26,68.9,59.7,56.5,59.2,56.2,53.4,93,89,70,29.94,29.76,5,2,8,0.20
2013-4-27,59.3,55.0,50.5,56.0,52.5,48.0,93,91,84,29.78,29.63,5,2,10,0.28
2013-4-28,60.5,55.2,50.4,57.6,52.4,47.9,93,90,84,29.77,29.63,6,3,9,0.46
2013-4-29,60.1,55.8,53.9,57.8,53.4,51.3,94,92,85,29.81,29.67,6,2,8,0.48
2013-4-30,68.8,58.1,48.3,52.6,49.6,43.1,88,74,54,29.98,29.79,6,3,9,0.00
2013-5-1,70.1,57.9,50.4,52.9,49.0,47.0,89,74,47,30.02,29.96,4,2,7,0.00
2013-5-2,72.4,61.0,50.8,53.9,50.3,45.8,85,69,45,30.02,29.95,4,2,7,0.00
2013-5-3,67.1,60.0,52.8,51.3,46.9,43.8,77,63,46,30.05,29.96,7,3,13,0.00
2013-5-4,69.5,60.8,51.1,50.2,46.7,44.3,81,62,42,30.11,30.03,6,2,8,0.00
2013-5-5,71.0,62.8,52.8,53.9,48.8,44.0,85,62,44,30.11,30.05,8,3,10,0.00
2013-5-6,74.6,61.0,51.3,57.6,50.8,-99.9,85,72,49,30.11,30.03,6,-5,11,0.00
2013-5-7,80.5,66.9,55.6,61.9,52.4,47.3,88,64,32,30.07,29.95,6,2,15,0.00
2013-5-8,84.9,73.1,61.1,59.3,53.2,48.1,69,52,30,29.99,29.90,6,2,14,0.00
2013-5-9,85.7,71.2,63.0,60.0,55.1,49.8,71,58,36,29.97,29.89,6,2,12,0.00
2013-5-10,73.5,65.6,57.8,58.1,51.0,46.3,79,60,44,30.07,29.90,7,3,10,0.00
2013-5-11,69.9,61.5,55.9,55.8,52.7,48.2,87,73,59,30.12,30.03,4,2,7,0.05
2013-5-12,71.5,61.9,53.5,57.7,53.5,49.6,89,75,57,30.15,30.08,7,2,12,0.00
2013-5-13,74.4,63.0,52.1,56.7,52.6,47.1,86,70,47,30.16,30.02,6,2,11,0.00
2013-5-14,77.8,65.6,55.3,60.3,55.0,51.1,86,70,46,30.05,29.71,6,2,9,0.00
2013-5-15,68.7,62.0,56.3,58.4,55.2,51.6,86,79,66,29.70,29.45,5,2,8,0.00
2013-5-16,62.6,59.0,52.8,58.8,49.4,38.4,92,73,44,29.60,29.41,7,2,10,0.07
2013-5-17,65.6,59.0,50.6,54.2,49.0,44.2,84,70,49,29.64,29.51,9,5,16,0.06
2013-5-18,65.5,60.9,57.9,55.6,48.5,38.4,88,66,39,29.85,29.60,11,6,16,0.05
2013-5-19,69.2,62.1,55.5,48.4,44.4,38.5,71,53,38,30.03,29.84,8,5,16,0.00
2013-5-20,66.0,57.7,52.2,51.9,47.8,44.7,82,70,54,30.05,30.00,5,1,5,0.00
2013-5-21,63.0,56.1,52.4,52.6,49.5,46.6,84,78,63,30.04,29.83,5,2,11,0.17
2013-5-22,71.9,62.2,53.5,53.6,49.8,47.1,83,65,44,29.91,29.82,9,4,13,0.01
2013-5-23,69.3,62.1,54.7,53.3,50.3,48.3,81,66,51,29.92,29.85,9,3,13,0.00
2013-5-24,71.4,60.8,53.4,51.0,46.5,42.4,83,61,37,30.02,29.88,6,3,9,0.00
2013-5-25,57.2,54.4,51.8,51.5,48.1,44.7,86,79,63,30.02,29.94,7,3,8,0.00
2013-5-26,69.7,63.9,57.4,51.3,47.0,-99.9,72,57,51,30.08,29.96,6,-15,9,0.00
2013-5-27,64.7,59.1,52.2,57.5,51.7,42.8,88,77,68,30.00,29.78,4,2,7,0.00
2013-5-28,76.2,63.6,54.3,58.1,51.6,45.7,92,68,36,29.81,29.69,8,4,18,0.01
2013-5-29,67.3,59.5,53.8,54.1,45.1,-99.9,89,63,38,29.86,29.77,8,-5,12,0.00
2013-5-30,65.0,59.8,53.0,49.3,44.8,38.6,74,59,39,29.92,29.79,11,5,16,0.01
2013-5-31,68.5,62.9,57.7,49.1,47.1,43.8,67,57,45,29.94,29.79,10,5,14,0.00
2013-6-1,76.1,66.5,59.6,51.8,46.3,41.6,73,51,31,30.02,29.89,9,5,15,0.01
2013-6-2,78.9,68.7,58.4,52.0,47.1,42.9,65,48,32,30.03,29.97,8,3,18,0.00
2013-6-3,76.6,66.2,56.6,53.4,49.0,46.0,71,56,37,30.03,29.97,8,3,11,0.00
2013-6-4,78.8,67.2,55.0,54.0,50.8,47.8,78,58,38,30.02,29.93,6,2,10,0.00
2013-6-5,78.7,67.1,58.2,52.6,49.0,45.1,71,54,35,29.97,29.91,6,2,9,0.00
2013-6-6,85.3,72.3,57.7,55.3,49.7,44.9,68,47,29,30.04,29.94,7,2,10,0.00
2013-6-7,80.8,69.9,59.9,59.8,54.7,48.3,82,60,40,30.05,29.94,6,2,9,0.00
2013-6-8,76.5,66.9,61.7,61.4,55.0,44.9,90,69,36,30.00,29.86,7,3,13,0.06
2013-6-9,74.8,66.7,58.6,58.0,53.6,48.6,86,65,42,29.92,29.80,10,5,18,0.00
2013-6-10,78.2,69.4,59.0,59.0,54.7,49.6,76,60,46,30.02,29.85,6,2,11,0.00
2013-6-11,80.6,69.4,57.8,64.3,58.5,50.0,79,69,55,30.06,29.99,8,3,13,0.00
2013-6-12,86.0,74.4,62.6,60.1,55.5,49.2,70,53,38,30.11,30.05,7,3,12,0.00
2013-6-13,90.4,78.3,64.5,60.0,55.3,52.5,69,47,32,30.06,29.99,6,2,11,0.00
2013-6-14,90.2,76.8,65.8,61.5,57.0,52.9,73,52,31,30.03,29.96,7,2,11,0.00
2013-6-15,95.2,80.7,65.8,55.7,50.8,43.3,60,37,23,30.00,29.94,5,2,9,0.00
2013-6-16,95.5,82.3,70.0,57.0,51.7,47.5,55,37,20,29.99,29.85,5,2,7,0.00
2013-6-17,100.7,84.5,73.3,67.2,58.0,46.7,75,42,28,29.87,29.72,6,2,10,0.00
2013-6-18,80.1,72.7,66.8,67.4,64.7,55.3,87,77,49,29.82,29.71,7,3,9,0.00
2013-6-19,83.4,71.8,60.7,62.1,55.9,48.3,84,61,32,29.96,29.80,8,3,10,0.00
2013-6-20,81.2,70.2,60.5,62.9,56.6,48.6,75,63,51,30.06,29.94,7,2,9,0.00
2013-6-21,85.3,72.9,61.1,61.6,56.5,51.1,79,58,36,30.09,29.99,6,2,9,0.00
2013-6-22,81.6,71.4,64.5,65.3,60.2,54.0,85,68,49,30.12,30.06,7,2,10,0.02
2013-6-23,84.3,72.0,60.3,62.6,57.4,52.0,86,62,36,30.13,30.06,7,2,11,0.00
2013-6-24,74.5,68.5,64.0,62.3,58.1,55.8,82,70,58,30.19,30.12,4,2,8,0.00
2013-6-25,78.2,68.5,63.1,58.8,56.9,54.8,77,67,50,30.19,30.13,5,2,7,0.00
2013-6-26,77.3,68.6,61.1,59.2,57.6,55.8,84,69,50,30.20,30.16,7,2,9,0.00
2013-6-27,80.1,69.6,58.5,57.2,52.9,46.4,82,57,39,30.20,30.10,6,2,9,0.00
2013-6-28,76.7,68.1,60.8,58.8,56.2,52.5,78,66,52,30.21,30.13,6,2,10,0.00
2013-6-29,82.6,71.7,60.4,59.5,55.7,52.1,79,60,36,30.22,30.14,7,3,11,0.00
2013-6-30,85.0,73.3,62.8,63.2,59.0,54.8,81,63,39,30.18,30.03,7,2,9,0.00
2013-7-1,86.3,74.1,61.8,63.7,59.5,54.2,80,62,41,30.05,29.93,6,2,7,0.00
2013-7-2,86.3,73.0,63.6,65.4,62.0,57.9,84,70,45,30.01,29.94,7,2,10,0.00
2013-7-3,87.0,74.2,64.4,67.8,64.2,60.4,88,73,48,30.07,29.95,6,2,9,0.00
2013-7-4,82.6,75.0,68.3,66.7,63.9,59.7,80,69,55,30.14,30.04,7,2,10,0.00
2013-7-5,87.4,74.9,64.5,64.7,59.5,53.6,85,62,36,30.16,30.11,8,2,15,0.00
2013-7-6,90.0,77.2,63.7,61.8,56.8,52.8,69,51,33,30.16,30.11,6,2,9,0.00
2013-7-7,93.7,81.8,66.7,62.7,58.4,54.6,67,47,31,30.14,30.06,6,2,11,0.00
2013-7-8,91.0,80.8,68.9,63.7,58.2,54.4,63,47,30,30.10,30.04,7,2,9,0.00
2013-7-9,91.6,80.5,68.9,64.9,60.3,55.8,66,51,32,30.08,29.97,6,3,9,0.00
2013-7-10,92.4,79.2,69.4,65.7,62.9,60.0,74,59,39,30.00,29.86,6,2,12,0.00
2013-7-11,91.3,79.4,72.0,68.3,63.6,58.6,72,60,37,29.91,29.83,6,2,8,0.00
2013-7-12,94.8,81.0,69.3,66.9,62.9,58.9,77,57,32,29.97,29.90,8,2,8,0.00
2013-7-13,85.2,77.5,72.2,65.2,59.0,51.1,70,54,38,30.02,29.95,4,1,7,0.00
2013-7-14,92.4,80.5,69.4,62.0,58.2,53.6,65,48,30,30.06,29.99,6,2,8,0.00
2013-7-15,94.9,81.4,70.4,66.3,61.7,57.8,70,53,31,30.08,30.02,7,2,7,0.00
2013-7-16,95.5,82.8,71.5,65.2,60.6,57.2,63,49,31,30.08,30.01,6,2,11,0.00
2013-7-17,95.1,81.9,71.3,66.2,62.2,58.1,66,52,34,30.08,30.01,6,2,9,0.00
2013-7-18,92.2,79.4,72.0,67.8,62.5,57.4,68,57,37,30.06,30.00,7,2,11,0.00
2013-7-19,92.4,81.3,70.4,67.3,62.5,59.0,76,55,38,30.04,29.91,5,2,10,0.00
2013-7-20,93.8,81.9,70.8,65.1,57.7,51.4,64,45,29,29.95,29.87,6,2,9,0.00
2013-7-21,93.3,81.6,70.4,69.6,59.9,52.4,76,49,30,30.00,29.92,6,2,10,0.02
2013-7-22,94.2,80.5,69.8,68.5,62.7,55.4,81,56,29,30.00,29.92,6,2,9,0.00
2013-7-23,91.8,80.4,70.9,68.9,64.7,61.2,76,60,45,29.96,29.89,6,2,12,0.00
2013-7-24,92.4,81.7,70.4,68.8,62.9,54.6,70,54,34,30.00,29.94,7,3,10,0.00
2013-7-25,99.6,84.7,70.3,61.9,56.6,47.9,57,40,24,30.00,29.92,7,2,9,0.00
2013-7-26,99.2,86.1,74.2,61.4,55.3,43.8,56,36,23,29.94,29.82,7,2,10,0.00
2013-7-27,101.5,86.4,75.8,73.1,66.0,57.9,79,52,34,29.86,29.74,6,2,10,0.00
2013-7-28,95.6,84.4,75.7,72.3,66.9,57.3,82,58,37,29.96,29.75,8,4,13,0.00
2013-7-29,91.1,81.2,74.7,70.0,63.4,56.2,77,57,34,30.16,29.92,9,4,13,0.00
2013-7-30,89.3,79.2,69.9,67.6,64.3,59.2,82,62,40,30.19,30.10,7,2,11,0.00
2013-7-31,95.4,81.5,69.0,67.5,62.4,56.3,75,55,32,30.12,29.97,6,2,12,0.00
2013-8-1,95.4,80.6,68.9,65.9,59.9,52.1,72,52,26,30.00,29.95,6,2,9,0.00
2013-8-2,96.8,84.1,71.5,66.9,59.2,53.3,55,44,31,30.01,29.94,5,2,9,0.00
2013-8-3,97.7,84.6,73.6,66.9,59.5,52.8,56,44,30,30.04,29.96,5,2,8,0.00
2013-8-4,98.3,84.5,73.7,63.8,59.6,52.2,60,44,28,30.07,30.01,6,2,9,0.00
2013-8-5,98.4,84.1,72.9,69.1,61.1,53.9,65,47,29,30.03,29.92,6,2,10,0.00
2013-8-6,101.8,85.6,74.8,72.9,63.1,49.7,81,48,26,29.94,29.79,7,2,10,0.00
2013-8-7,91.1,82.4,75.1,75.7,72.4,63.1,84,73,59,29.81,29.70,7,4,10,0.00
2013-8-8,84.2,78.8,71.6,73.2,64.1,53.6,83,62,38,30.09,29.76,7,3,12,0.00
2013-8-9,86.5,77.1,67.2,63.2,58.1,53.1,74,54,33,30.13,30.06,7,3,11,0.00
2013-8-10,90.0,78.7,68.3,65.0,61.6,58.0,75,57,37,30.11,30.03,6,2,11,0.00
2013-8-11,91.0,78.8,67.4,66.8,64.3,59.6,81,63,40,30.06,29.98,7,2,10,0.00
2013-8-12,93.8,81.2,68.8,69.3,64.4,56.9,76,59,31,30.00,29.91,6,2,9,0.00
2013-8-13,95.2,81.9,71.8,68.7,61.0,52.2,75,52,27,29.99,29.93,7,2,12,0.00
2013-8-14,88.1,79.7,73.1,66.0,63.2,59.6,73,58,46,30.01,29.97,6,2,11,0.00
2013-8-15,89.2,79.1,70.1,68.4,64.7,60.7,76,62,43,30.04,29.99,6,2,7,0.00
2013-8-16,92.9,79.9,69.2,69.9,66.9,63.8,84,67,40,30.04,29.96,6,2,10,0.00
2013-8-17,90.1,78.8,72.0,71.9,67.1,61.9,85,70,41,30.02,29.96,6,1,10,0.52
2013-8-22,89.4,82.6,73.8,64.6,62.8,58.4,71,53,37,29.98,29.91,5,3,9,0.00
2013-8-23,92.4,78.4,69.0,69.3,64.3,58.3,78,64,35,29.94,29.90,6,2,6,0.00
2013-8-24,91.8,77.8,67.0,70.0,65.4,57.1,83,67,40,29.93,29.88,6,2,8,0.00
2013-8-25,76.8,74.3,72.2,68.7,64.9,63.1,81,73,66,29.93,29.80,4,1,5,0.00
2013-8-26,73.9,70.6,67.9,68.2,66.8,65.2,92,88,75,29.86,29.76,5,1,5,0.93
2013-8-27,80.8,71.9,67.9,67.3,65.6,63.8,92,81,59,29.95,29.84,4,1,6,0.28
2013-8-28,81.6,72.5,66.7,67.5,62.7,60.0,89,73,52,30.01,29.93,5,2,8,0.05
2013-8-29,81.8,74.2,67.4,63.5,60.2,48.7,77,63,50,30.04,29.95,8,3,14,0.00
2013-8-30,78.1,73.6,69.7,61.1,57.5,48.1,68,58,40,30.07,29.95,6,2,9,0.00
2013-8-31,83.9,76.0,68.3,59.4,57.6,54.1,72,54,40,30.11,30.04,6,3,13,0.00
2013-9-1,83.5,75.2,67.5,60.7,57.2,52.7,67,54,41,30.14,30.07,8,3,10,0.00
2013-9-2,85.9,74.9,66.2,63.5,58.8,54.5,75,58,42,30.17,30.10,6,2,10,0.00
2013-9-3,85.7,75.1,68.0,63.7,61.4,56.3,78,64,41,30.17,30.10,6,2,8,0.00
2013-9-4,85.2,74.9,66.9,67.5,63.4,61.3,88,69,46,30.15,30.03,6,2,10,0.00
2013-9-5,88.5,75.5,65.2,65.6,60.4,52.3,79,61,35,30.03,29.87,6,2,11,0.00
2013-9-6,88.0,75.7,66.2,65.7,62.1,56.9,84,65,36,29.93,29.84,6,2,12,0.00
2013-9-7,81.7,73.1,66.4,67.8,63.3,57.1,84,72,60,30.05,29.92,8,2,9,0.00
2013-9-8,85.9,75.3,70.7,68.9,66.5,60.0,86,75,51,30.13,29.98,6,2,8,0.02
2013-9-9,81.8,73.0,69.1,66.2,64.4,62.4,84,75,56,30.17,30.11,5,2,8,0.00
2013-9-10,83.6,72.5,65.9,67.4,64.0,61.0,90,76,50,30.12,30.00,5,2,7,0.00
2013-9-11,73.4,67.5,63.6,66.5,62.4,59.1,91,84,74,30.09,29.99,6,2,9,0.65
2013-9-12,75.6,68.5,62.6,63.3,60.1,58.2,87,75,60,30.13,30.07,5,1,6,0.00
2013-9-13,82.1,70.3,61.6,64.3,61.1,57.8,89,74,48,30.19,30.12,5,1,9,0.00
2013-9-14,83.3,71.8,63.0,65.8,62.0,58.8,88,73,47,30.19,30.02,5,2,10,0.00
2013-9-15,85.5,73.4,67.6,69.7,65.2,62.3,86,77,53,30.04,29.90,6,2,10,0.00
2013-9-16,81.6,71.8,64.7,68.9,65.3,61.4,91,81,55,29.99,29.82,6,2,9,0.00
2013-9-17,78.8,70.8,65.3,65.9,62.1,57.2,85,74,59,29.96,29.82,5,2,7,0.00
2013-9-18,81.8,70.4,62.5,65.9,59.1,53.2,89,70,42,29.96,29.86,6,2,11,0.00
2013-9-19,79.7,71.1,64.7,65.8,60.2,52.8,86,69,55,29.96,29.84,7,2,9,0.00
2013-9-20,78.5,70.3,64.6,66.6,62.6,59.2,88,77,62,30.10,29.96,4,2,8,0.00
2013-9-21,83.3,70.3,62.4,65.1,60.8,55.3,90,73,47,30.19,30.10,6,2,8,0.27
2013-9-22,82.4,69.7,59.5,66.5,61.1,56.3,91,76,51,30.21,30.15,4,1,7,0.02
2013-9-23,82.1,70.1,60.7,64.9,60.2,56.6,88,73,47,30.16,30.05,4,1,5,0.00
2013-9-24,82.8,71.5,62.3,65.4,61.5,58.7,89,72,49,30.05,29.95,5,1,8,0.00
2013-9-25,84.6,72.0,62.2,65.0,61.2,57.6,87,70,47,29.97,29.90,4,1,7,0.00
2013-9-26,85.0,72.7,63.2,68.7,64.4,59.3,89,76,57,29.99,29.92,5,2,10,0.00
2013-9-27,90.0,75.6,64.0,67.5,56.9,38.3,85,55,30,29.95,29.81,5,1,8,0.00
2013-9-28,83.3,74.8,69.8,69.4,66.5,60.2,88,76,46,29.81,29.71,7,3,12,0.00
2013-9-29,79.3,73.1,68.7,66.4,62.4,58.4,86,70,54,29.74,29.67,8,4,16,0.00
2013-9-30,82.1,73.8,68.3,64.2,60.7,57.5,75,64,49,29.76,29.68,9,3,11,0.00
2013-10-1,87.7,76.1,66.6,70.9,64.2,59.0,88,68,40,29.80,29.72,7,3,11,0.00
2013-10-2,88.1,76.6,68.1,70.6,64.9,59.5,87,69,46,29.85,29.77,5,2,8,0.00
2013-10-3,82.3,75.1,68.8,70.5,67.6,62.6,87,78,63,29.94,29.82,5,2,9,0.00
2013-10-4,85.7,76.3,70.8,72.9,69.4,66.1,89,80,63,29.99,29.87,6,2,8,0.00
2013-10-5,79.1,73.2,66.6,67.7,63.0,57.3,84,71,56,30.14,29.98,7,2,10,0.00
2013-10-6,75.7,67.6,62.1,59.4,57.5,55.6,81,71,51,30.15,30.10,6,2,9,0.00
2013-10-7,76.5,66.6,61.0,58.8,56.6,55.3,82,71,50,30.15,30.09,4,1,5,0.00
2013-10-8,78.7,64.2,58.2,58.6,55.0,50.9,84,73,48,30.16,30.12,4,1,8,0.00
2013-10-10,74.5,69.2,61.1,62.2,57.6,49.7,75,67,58,29.90,29.85,6,3,9,0.00
2013-10-11,65.5,61.7,58.3,58.7,55.5,51.2,86,80,69,29.94,29.86,3,1,7,0.09
2013-10-12,74.2,65.1,59.2,62.0,59.1,55.6,89,81,63,30.06,29.94,3,1,7,0.01
2013-10-13,78.8,69.2,63.0,66.5,61.3,58.4,90,77,50,30.08,30.02,5,2,8,0.00
2013-10-14,78.7,68.1,60.2,64.5,60.5,55.7,87,78,59,30.09,30.03,6,2,10,0.00
2013-10-15,78.7,70.7,65.3,64.7,60.8,56.2,87,72,46,30.09,29.96,5,3,11,0.00
2013-10-16,85.7,74.1,65.2,61.5,58.8,57.4,80,60,41,30.05,29.97,5,2,10,0.00
2013-10-17,80.5,71.1,63.1,65.2,62.4,58.1,87,75,57,30.09,30.02,6,2,9,0.00
2013-10-18,82.6,69.8,63.7,66.7,62.0,60.0,89,78,54,30.02,29.91,4,1,7,0.00
2013-10-19,83.5,70.2,61.7,67.2,63.1,57.8,89,79,56,30.02,29.95,4,1,10,0.00
2013-10-20,80.0,69.5,64.0,65.8,63.1,60.1,88,81,60,30.08,29.98,5,2,7,0.00
2013-10-21,83.9,71.2,61.0,66.5,62.0,55.0,90,74,47,30.08,29.96,4,1,9,0.00
2013-10-22,79.6,70.2,64.3,68.1,62.2,56.8,85,76,66,29.96,29.84,7,2,9,0.00
2013-10-23,77.4,71.0,65.5,65.2,60.6,54.2,85,71,48,30.00,29.85,7,3,9,0.00
2013-10-24,79.8,69.3,61.7,63.9,58.3,53.1,84,69,47,30.03,29.96,6,2,8,0.00
2013-10-25,84.3,71.6,62.1,65.8,59.7,51.5,85,68,47,30.00,29.93,4,1,7,0.00
2013-10-26,86.8,74.3,67.7,69.2,61.8,52.4,87,66,50,30.06,29.94,5,1,7,0.00
2013-10-27,86.0,71.0,63.6,69.2,63.3,59.6,91,78,48,30.17,30.06,5,1,7,0.01
2013-10-28,78.0,68.7,62.0,66.6,61.5,54.9,87,78,64,30.14,29.92,7,3,12,0.00
2013-10-29,70.9,63.6,59.0,63.0,58.2,52.1,90,83,72,30.00,29.87,13,2,13,0.44
2013-10-30,63.3,60.1,55.0,51.8,45.7,42.9,72,59,49,30.11,29.97,6,3,14,0.01
2013-10-31,70.3,60.3,51.9,51.5,47.7,43.6,77,64,48,30.17,30.09,6,2,14,0.00
2013-11-1,75.5,63.3,54.5,54.0,48.9,43.6,74,61,35,30.17,30.09,4,2,8,0.00
2013-11-2,73.3,65.6,60.9,60.3,56.9,53.3,84,74,57,30.09,29.98,5,3,8,0.00
2013-11-3,77.1,66.5,59.3,61.0,57.6,52.8,85,74,49,30.02,29.95,6,3,9,0.00
2013-11-4,70.4,64.0,60.5,59.6,56.1,48.4,88,76,56,29.99,29.65,11,5,15,0.07
2013-11-5,73.6,68.4,63.8,58.8,54.9,48.6,77,62,54,29.82,29.70,17,8,24,0.01
2013-11-6,79.4,70.3,61.9,60.1,56.3,53.8,79,62,46,30.05,29.82,11,4,21,0.00
2013-11-7,77.3,66.5,58.6,66.3,58.8,51.4,86,77,63,30.05,29.98,6,2,11,0.00
2013-11-8,73.7,66.5,60.0,61.2,57.2,51.4,85,73,46,30.01,29.92,7,3,13,0.00
2013-11-9,64.1,60.3,54.0,57.0,52.8,44.1,82,76,66,30.14,30.00,5,2,9,0.01
2013-11-10,67.6,63.3,53.4,52.9,49.1,44.1,72,60,51,30.13,29.96,15,7,31,0.00
2013-11-11,68.6,61.3,56.6,53.2,47.0,28.6,76,60,29,30.10,30.01,5,1,7,0.00
2013-11-12,67.9,61.7,55.9,47.9,38.8,28.8,62,44,31,30.09,30.02,8,4,15,0.00
2013-11-13,64.8,60.8,56.2,53.3,49.3,42.7,72,66,57,30.09,30.04,6,2,9,0.00
2013-11-15,50.0,49.2,48.1,39.1,38.5,38.1,71,67,64,29.96,29.95,7,6,11,0.17
2013-11-18,57.5,53.8,50.6,52.4,48.6,46.9,94,83,69,29.57,29.38,8,4,10,0.35
2013-11-19,57.2,54.4,51.6,53.0,49.7,47.3,91,84,73,29.79,29.33,12,4,24,2.46
2013-11-20,51.4,47.3,42.9,48.9,43.3,38.1,92,86,73,29.92,29.76,5,1,7,0.31
2013-11-21,58.0,53.1,48.0,44.2,40.4,36.5,72,62,50,29.89,29.57,11,6,16,0.01
2013-11-22,54.5,49.5,43.8,42.9,39.0,35.5,85,68,56,29.70,29.50,11,4,14,0.69
2013-11-23,52.0,46.9,44.2,43.7,38.4,35.4,85,73,58,29.78,29.64,5,2,6,0.07
2013-11-24,53.2,47.5,43.6,42.7,40.7,37.7,82,77,63,29.97,29.77,6,1,10,0.05
2013-11-25,48.8,47.6,46.5,43.2,42.4,41.9,85,82,79,30.04,29.96,2,1,6,0.05
2013-12-11,58.6,55.0,50.2,51.1,49.0,46.2,86,80,74,30.53,30.45,3,0,4,0.00
2013-12-12,62.9,52.8,46.1,52.3,46.1,43.0,91,79,59,30.47,30.33,3,1,5,0.00
2013-12-13,61.4,50.6,43.0,49.0,44.2,38.8,87,79,58,30.33,30.22,4,1,7,0.01
2013-12-14,61.2,49.9,44.4,50.6,43.9,41.1,92,81,55,30.49,30.32,5,1,9,0.01
2013-12-15,65.0,53.5,44.3,49.6,41.8,34.1,88,67,37,30.50,30.43,6,2,9,0.00
2013-12-16,61.5,51.7,45.5,51.3,45.6,40.8,89,80,62,30.48,30.40,3,1,3,0.00
2013-12-17,59.0,54.4,51.2,52.2,49.6,47.5,88,84,75,30.41,30.28,2,0,3,0.00
2013-12-18,63.2,53.3,46.1,53.8,47.3,42.7,90,81,58,30.29,30.19,4,1,7,0.00
2013-12-19,57.3,55.1,53.2,54.1,51.7,49.3,92,88,80,30.19,29.78,10,4,12,0.69
2013-12-20,54.1,52.5,50.9,51.1,47.1,44.2,93,82,73,30.36,29.76,12,5,18,0.20
2013-12-21,61.4,53.6,49.5,54.5,49.2,46.1,91,85,73,30.45,30.36,4,1,8,0.00
2013-12-22,63.0,55.2,49.4,55.1,50.2,46.3,92,84,66,30.44,30.34,3,1,4,0.00
2013-12-23,59.8,52.3,45.5,53.1,48.0,42.7,92,86,74,30.36,30.18,8,2,12,0.02
2013-12-24,59.0,55.6,53.5,52.5,50.9,48.9,88,84,78,30.18,29.79,10,6,14,0.00
2013-12-25,57.9,52.9,52.3,54.1,43.4,-99.9,92,81,74,29.78,29.31,14,-49,19,0.65
2013-12-26,53.9,18.1,51.1,38.4,-53.2,-99.9,58,18,50,29.89,29.40,15,-653,24,0.00
2013-12-27,64.6,21.5,51.8,51.9,-47.7,-99.9,79,22,55,29.95,29.86,9,-647,10,0.00
2013-12-28,64.7,18.6,56.6,53.4,-54.3,-99.9,84,21,56,30.02,29.78,9,-695,16,0.00
2013-12-29,55.0,12.1,50.8,41.3,-68.3,-99.9,64,14,58,30.33,30.02,6,-772,12,0.00
2013-12-30,59.0,16.3,45.9,43.8,-59.2,-99.9,81,16,41,30.34,30.24,5,-703,9,0.00
2013-12-31,56.4,27.1,46.9,45.8,-26.8,-99.9,75,34,59,30.24,30.04,5,-478,9,0.00
2014-1-1,63.0,52.0,44.2,49.4,43.6,37.2,85,73,56,30.07,29.99,9,3,14,0.00
2014-1-2,61.9,56.8,53.2,49.9,48.4,47.0,85,74,62,29.99,29.91,9,4,14,0.00